Location: ??????
(55.2000°N, 38.3000°E)
Time: 01:01:13
(UTC+00:00)

Sich 1 Rocket - Pass Details

Date: 15 November 2025
Orbit: 611 x 646 km, 82.5° (Epoch: 12 December)

Event Time Altitude Azimuth Distance (km) Brightness Sun altitude
Rises 02:49:36 0° 349° (N) 2,973 6.9 -18.2°
Reaches altitude 10° 02:51:54 10° 353° (N) 2,055 6.1 -17.9°
Maximum altitude 02:56:26 65° 75° (ENE) 709 4.0 -17.2°
Drops below altitude 10° 03:00:54 10° 158° (SSE) 2,021 6.6 -16.6°
Sets 03:03:09 0° 161° (SSE) 2,919 7.4 -16.3°
